Roda de Ter - l'Esquerda





Hora UTC 06:05
Temperatura 3.3 ºC
Humitat 94.0 %
Pressió 1023.4 hPa
Pluja 0.0 mm
Velocitat vent 1.6 km/h
Direcció vent W

Dades diàries 2020-12-01



Hora UTC (hivern +1h; estiu +2h)
Temperatura (ºC) Humitat (%) Pressió (hPa) Velocitat vent (km/h) Precipitació (mm)
Hora UTC Aire Humitat Pressió Vel. Dir. Vel. Max Dir. Intent. màx 5 min.
00:05 4.4 93.0 1024.8 0.0 NE 0.0 0.0
00:10 4.5 93.0 1024.9 1.6 NE 3.2 0.0
00:15 4.5 93.0 1024.7 1.6 NE 3.2 0.0
00:20 4.6 94.0 1024.8 0.0 NE 3.2 0.0
00:25 4.6 94.0 1024.7 0.0 NE 3.2 0.0
00:30 4.7 94.0 1024.6 0.0 NE 0.0 0.0
00:35 4.7 94.0 1024.6 0.0 NE 0.0 0.0
00:40 4.7 94.0 1024.6 0.0 NE 0.0 0.0
00:45 4.8 94.0 1024.5 1.6 NE 1.6 0.0
00:50 4.8 93.0 1024.5 0.0 NE 1.6 0.0
00:55 4.9 94.0 1024.5 0.0 NE 1.6 0.0
01:00 4.9 94.0 1024.5 0.0 NE 1.6 0.0
01:05 4.9 94.0 1024.5 0.0 NE 1.6 0.0
01:10 4.9 94.0 1024.5 0.0 NE 1.6 0.0
01:15 4.9 93.0 1024.3 1.6 NE 1.6 0.0
01:20 4.9 94.0 1024.3 0.0 NE 3.2 0.0
01:25 4.9 94.0 1024.4 0.0 NE 3.2 0.0
01:30 4.9 94.0 1024.2 1.6 NE 3.2 0.0
01:35 4.9 93.0 1024.5 0.0 NE 3.2 0.0
01:40 4.9 94.0 1024.6 0.0 NE 3.2 0.0
01:45 4.9 94.0 1024.5 0.0 NE 0.0 0.0
01:50 4.8 94.0 1024.5 0.0 NE 1.6 0.0
01:55 4.8 94.0 1024.4 1.6 NE 3.2 0.0
02:00 4.7 94.0 1024.3 3.2 WSW 4.8 0.0
02:05 4.6 94.0 1024.3 3.2 WSW 4.8 0.0
02:10 4.5 93.0 1024.4 0.0 WSW 4.8 0.0
02:15 4.5 93.0 1024.4 1.6 WSW 3.2 0.0
02:20 4.4 93.0 1024.3 1.6 WSW 3.2 0.0
02:25 4.4 93.0 1024.4 1.6 WSW 3.2 0.0
02:30 4.3 94.0 1024.3 1.6 WSW 3.2 0.0
02:35 4.3 94.0 1024.3 0.0 WSW 3.2 0.0
02:40 4.2 94.0 1024.2 1.6 WSW 3.2 0.0
02:45 4.2 94.0 1024.2 1.6 WSW 4.8 0.0
02:50 4.2 93.0 1024.3 3.2 WSW 4.8 0.0
02:55 4.1 94.0 1024.3 1.6 WSW 4.8 0.0
03:00 3.9 94.0 1024.3 1.6 WSW 3.2 0.0
03:05 3.9 93.0 1024.3 1.6 WSW 4.8 0.0
03:10 3.8 93.0 1024.1 1.6 WSW 4.8 0.0
03:15 3.8 93.0 1024.1 3.2 WSW 4.8 0.0
03:20 3.8 94.0 1024.0 0.0 WSW 4.8 0.0
03:25 3.9 94.0 1024.0 4.8 WSW 4.8 0.0
03:30 3.9 94.0 1023.8 3.2 SW 6.4 0.0
03:35 3.9 94.0 1023.8 1.6 SW 6.4 0.0
03:40 3.8 94.0 1023.8 3.2 SW 4.8 0.0
03:45 3.8 94.0 1023.8 1.6 WSW 4.8 0.0
03:50 3.8 94.0 1023.8 3.2 WSW 4.8 0.0
03:55 3.7 94.0 1023.8 0.0 WSW 4.8 0.0
04:00 3.7 94.0 1023.7 1.6 WSW 4.8 0.0
04:05 3.7 94.0 1023.7 0.0 WSW 3.2 0.0
04:10 3.7 94.0 1023.7 1.6 WSW 4.8 0.0
04:15 3.7 94.0 1023.6 1.6 WSW 4.8 0.0
04:20 3.6 94.0 1023.6 3.2 WSW 4.8 0.0
04:25 3.6 94.0 1023.5 1.6 WSW 4.8 0.0
04:30 3.6 94.0 1023.4 0.0 WSW 3.2 0.0
04:35 3.6 94.0 1023.5 0.0 WSW 3.2 0.0
04:40 3.6 94.0 1023.5 1.6 WSW 3.2 0.0
04:45 3.6 94.0 1023.5 1.6 WSW 3.2 0.0
04:50 3.5 94.0 1023.5 0.0 WSW 3.2 0.0
04:55 3.6 94.0 1023.5 3.2 WSW 3.2 0.0
05:00 3.5 94.0 1023.4 1.6 W 4.8 0.0
05:05 3.4 94.0 1023.5 0.0 W 4.8 0.0
05:10 3.4 94.0 1023.5 3.2 W 4.8 0.0
05:15 3.4 94.0 1023.5 1.6 W 4.8 0.0
05:20 3.4 94.0 1023.5 0.0 W 3.2 0.0
05:25 3.4 94.0 1023.4 1.6 W 3.2 0.0
05:30 3.4 94.0 1023.3 4.8 W 4.8 0.0
05:35 3.3 94.0 1023.3 1.6 W 4.8 0.0
05:40 3.3 94.0 1023.1 1.6 W 4.8 0.0
05:45 3.3 94.0 1023.3 1.6 W 3.2 0.0
05:50 3.3 94.0 1023.2 4.8 W 4.8 0.0
05:55 3.3 94.0 1023.3 0.0 W 4.8 0.0
06:00 3.3 94.0 1023.4 1.6 W 3.2 0.0
06:05 3.3 94.0 1023.4 1.6 W 3.2 0.0
Màxima 4.9 94.0 1024.9 4.8 W 6.4 0.0
Mínima 3.2 93.0 1023.1
Total 0.0